[[{"header":{"parameterUnit":"m.s-1","parameterCategory":1,"la1":30.2991,"la2":30.254,"lo1":-89.0895,"lo2":-89.0444,"dy":0.0017,"dx":0.0017,"nx":28,"ny":28,"refTime":"2026-02-07T03:00:00:Z","depth":0,"parameterNumber":2,"parameterNumberName":"U-component_of_WINDS"},"data":[0,0,0,0,0,0,0,0,0,0,0,0,0,0,0,0,0,0,0,0,0,0,0,0,0,0,0,0,0,0,0,0,0,0,0,0,0,0,0,0,0,0,0,0,0,0,0,0,0,0,0,0,0,0,0,0,0,0,3.369,3.369,0,3.3758,3.3759,3.3759,3.3668,3.3665,3.3661,3.3658,3.3732,3.3737,3.3742,0,0,0,0,0,0,0,0,0,0,0,0,0,3.3485,3.3489,3.369,3.369,3.3691,3.3758,3.3759,3.376,3.3668,3.3664,3.366,3.3657,3.3731,3.3736,3.3743,0,0,0,0,0,0,0,0,0,0,0,0,0,3.3566,3.3491,3.3689,3.3654,3.3651,3.3758,3.3759,3.376,3.3669,3.3664,3.3659,3.3655,3.3729,3.3736,3.3743,3.3889,0,0,3.3767,3.377,0,0,0,0,0,0,0,0,3.3561,3.3574,3.3658,3.3656,3.3654,3.3699,3.3714,3.3804,3.3671,3.3663,3.3658,3.3652,3.3726,3.3733,3.3757,3.3893,3.3896,3.3767,3.3772,3.3775,3.3777,0,0,0,0,0,0,0,3.3556,3.357,3.3717,3.3659,3.3657,3.3636,3.3642,3.373,3.3721,3.3663,3.3656,3.3666,3.3723,3.375,3.3758,3.3897,3.3767,3.3774,3.3778,3.3781,3.4158,3.4163,0,0,0,0,0,0,3.3554,3.3566,3.3714,3.3719,3.3594,3.3644,3.365,3.369,3.372,3.372,3.367,3.3661,3.3739,3.3749,3.376,3.3933,3.3775,3.3782,3.3786,3.4152,3.4159,3.4165,0,0,0,0,0,0,3.355,3.3568,3.3712,3.3641,3.3657,3.3652,3.3697,3.3694,3.372,3.3725,3.3723,3.3698,3.3736,3.3749,3.3858,3.3934,3.3785,3.3792,3.4146,3.4154,3.4162,3.428,0,0,0,0,0,0,3.3544,3.3567,3.3621,3.3643,3.3661,3.3807,3.3702,3.3699,3.3733,3.3722,3.3751,3.3751,3.3733,3.3847,3.3865,3.3942,3.3798,3.4139,3.415,3.4159,3.4269,3.4291,3.431,0,0,0,0,0,3.3537,3.3652,3.3624,3.3643,3.3729,3.3811,3.3822,3.3798,3.3739,3.3794,3.3798,3.375,3.3924,3.3859,3.3879,3.3959,3.4134,3.4147,3.4159,3.426,3.4287,3.4309,0,0,0,0,0,0,3.3641,3.3654,3.3623,3.3748,3.3779,3.3796,3.3864,3.3827,3.3876,3.3864,3.3833,3.3841,3.3957,3.3969,3.3897,3.4103,3.4019,3.4036,3.409,3.4115,3.4135,3.4129,3.3805,0,0,0,0,0,3.3678,3.3743,3.3752,3.3861,3.3878,3.3869,3.3904,3.3883,3.3914,3.3927,3.3939,3.3972,3.4034,3.4076,3.4133,3.4272,3.4277,3.4337,3.4357,3.4374,3.4388,3.4463,3.449,3.4205,3.4205,3.4205,0,0,3.3755,3.3771,3.3814,3.3882,3.3904,3.3973,3.3881,3.3957,3.4009,3.3939,3.4041,3.4052,3.4088,3.4212,3.4267,3.4226,3.4468,3.4389,3.4403,3.4408,3.4478,3.4505,3.4529,3.4213,3.4212,3.4211,0,0,3.3931,3.395,3.4042,3.4066,3.41,3.4094,3.4117,3.414,3.4143,3.4246,3.4195,3.4257,3.4365,3.4392,3.442,3.461,3.4568,3.463,3.4736,3.4809,3.4832,3.4851,3.4919,3.4943,3.4645,3.4645,3.4646,0,3.4023,3.4123,3.4096,3.4176,3.4208,3.4149,3.4244,3.4269,3.4321,3.4345,3.4298,3.4432,3.4452,3.4582,3.4628,3.4653,3.4679,3.4625,3.4831,3.485,3.4868,3.4932,3.4957,3.4653,3.4652,3.4651,3.465,0,3.4235,3.4306,3.4378,3.4428,3.4469,3.4557,3.4543,3.4588,3.4565,3.4564,3.467,3.4693,3.4754,3.4784,3.4761,3.4911,3.4884,3.4835,3.475,3.4903,3.4962,3.4987,3.4663,3.466,3.4658,3.4656,0,0,3.4474,3.451,3.4536,3.4559,3.4593,3.4648,3.4735,3.4794,3.4833,3.4872,3.4944,3.5038,3.4992,3.5024,3.5006,3.507,3.5219,3.5013,3.5013,3.5049,3.5386,3.5422,3.545,3.5193,3.5198,3.5201,3.5383,0,3.4649,3.4796,3.4775,3.4917,3.4983,3.4929,3.5005,3.5035,3.5038,3.5096,3.5099,3.5166,3.5101,3.512,3.5182,3.5188,3.5286,3.5175,3.526,3.5263,3.525,3.5481,3.5519,3.5689,3.5406,3.541,3.5413,0,3.4872,3.4918,3.5067,3.5092,3.5119,3.5187,3.524,3.5296,3.533,3.5328,3.5365,3.5335,3.5424,3.534,3.5461,3.5386,3.542,3.5429,3.5435,3.544,3.5345,3.5492,3.5743,3.5767,3.5449,3.5446,3.5444,0,3.503,3.513,3.5232,3.5253,3.5286,3.5335,3.5351,3.5381,3.5418,3.5466,3.549,3.5548,3.5579,3.5626,3.5613,3.5553,3.5738,3.5653,3.5739,3.5739,3.5778,3.5775,3.6036,3.5804,3.5803,3.5803,3.5802,0,3.5226,3.5319,3.5303,3.5366,3.5469,3.5446,3.5549,3.5559,3.5586,3.5651,3.561,3.5672,3.5652,3.5714,3.5705,3.5807,3.5823,3.5823,3.582,3.5826,3.5826,3.5846,3.5833,3.581,3.5808,3.5807,3.5806,0,3.5419,3.5412,3.5519,3.5542,3.555,3.5625,3.5646,3.5705,3.5706,3.5789,3.5807,3.5808,3.5879,3.5872,3.5951,3.5946,3.6072,3.6055,3.606,3.6055,3.6141,3.6132,3.6423,3.6459,3.6205,3.6208,3.621,0,3.5543,3.5613,3.5644,3.5683,3.5703,3.5768,3.5806,3.5788,3.5829,3.5875,3.593,3.5997,3.6049,3.6165,3.6174,3.6235,3.6218,3.6316,3.6227,3.6231,3.6218,3.6213,3.622,3.6333,3.6335,3.6338,3.634,0,3.5763,3.5757,3.5813,3.5869,3.5915,3.5959,3.5998,3.6033,3.6019,3.6068,3.614,3.618,3.6262,3.6329,3.6388,3.6406,3.6371,3.6368,3.6391,3.6397,3.6396,3.6396,3.6105,3.6361,3.6359,3.6357,3.6356,3.6355,3.5924,3.5984,3.6016,3.608,3.6108,3.6146,3.6203,3.6211,3.627,3.6334,3.6321,3.6401,3.6437,3.6511,3.6536,3.66,3.6565,3.6598,3.6606,3.6614,3.6623,3.6388,3.6611,3.6611,3.661,3.6609,3.6609,0,3.6141,3.6159,3.6219,3.6275,3.6326,3.629,3.6332,3.6377,3.6448,3.6484,3.6536,3.662,3.6685,3.6701,3.6764,3.6813,3.6798,3.683,3.6825,3.683,3.6652,3.6625,3.684,3.684,3.684,3.684,3.684,3.684,3.626,3.6359,3.6358,3.6472,3.649,3.6567,3.6595,3.6631,3.6659,3.6753,3.6807,3.6817,3.6845,3.6911,3.697,3.6973,3.6998,3.7035,3.7032,3.6865,3.6842,3.682,3.6794,3.7041,3.7042,3.7204,3.7205,3.7206]},{"header":{"parameterUnit":"m.s-1","parameterCategory":1,"la1":30.2991,"la2":30.254,"lo1":-89.0895,"lo2":-89.0444,"dy":0.0017,"dx":0.0017,"nx":28,"ny":28,"refTime":"2026-02-07T03:00:00:Z","depth":0,"parameterNumber":3,"parameterNumberName":"V-component_of_WINDS"},"data":[0,0,0,0,0,0,0,0,0,0,0,0,0,0,0,0,0,0,0,0,0,0,0,0,0,0,0,0,0,0,0,0,0,0,0,0,0,0,0,0,0,0,0,0,0,0,0,0,0,0,0,0,0,0,0,0,0,0,2.244,2.2441,0,2.257,2.2571,2.2573,2.2585,2.2584,2.2583,2.2582,2.271,2.2714,2.2719,0,0,0,0,0,0,0,0,0,0,0,0,0,2.2197,2.2201,2.2439,2.2441,2.2443,2.257,2.2571,2.2573,2.2586,2.2584,2.2582,2.2581,2.2708,2.2714,2.2719,0,0,0,0,0,0,0,0,0,0,0,0,0,2.2312,2.2203,2.2439,2.2464,2.2468,2.2569,2.2571,2.2574,2.2586,2.2584,2.2582,2.258,2.2706,2.2713,2.272,2.2803,0,0,2.2741,2.2744,0,0,0,0,0,0,0,0,2.2305,2.2321,2.2459,2.2463,2.2467,2.2559,2.2533,2.265,2.2587,2.2541,2.2581,2.2579,2.2661,2.2672,2.27,2.2809,2.2815,2.2742,2.2746,2.2749,2.2751,0,0,0,0,0,0,0,2.2297,2.2315,2.2491,2.2461,2.2466,2.2468,2.2482,2.2555,2.261,2.2545,2.2546,2.2562,2.2663,2.2693,2.2703,2.2817,2.2742,2.2748,2.2752,2.2755,2.3,2.3002,0,0,0,0,0,0,2.2285,2.2309,2.2487,2.2495,2.238,2.2474,2.249,2.2532,2.261,2.262,2.2563,2.2562,2.2682,2.2695,2.2708,2.281,2.2749,2.2756,2.276,2.2998,2.3,2.3003,0,0,0,0,0,0,2.228,2.2301,2.2481,2.2402,2.2425,2.248,2.2527,2.2535,2.2566,2.2624,2.2633,2.2585,2.2681,2.2698,2.278,2.2815,2.2759,2.2765,2.2995,2.2998,2.3002,2.3015,0,0,0,0,0,0,2.2273,2.2299,2.2333,2.2403,2.243,2.2553,2.253,2.2539,2.2579,2.2578,2.2647,2.2656,2.2681,2.2769,2.2787,2.2823,2.2771,2.2992,2.2996,2.3001,2.3012,2.3019,2.3025,0,0,0,0,0,2.2264,2.233,2.2334,2.2356,2.2473,2.2555,2.257,2.2599,2.2582,2.2615,2.2652,2.2654,2.2808,2.2778,2.2797,2.2836,2.299,2.2995,2.3,2.3009,2.3017,2.3024,0,0,0,0,0,0,2.2261,2.234,2.2345,2.2436,2.2489,2.2557,2.2599,2.2607,2.2664,2.2661,2.2694,2.2709,2.2789,2.2821,2.2785,2.2921,2.2897,2.2906,2.2897,2.2905,2.2912,2.2901,2.2776,0,0,0,0,0,2.2271,2.2333,2.2398,2.2471,2.2498,2.2544,2.2581,2.2599,2.2654,2.2676,2.2719,2.2771,2.2831,2.287,2.2929,2.3017,2.3031,2.3053,2.306,2.3065,2.3072,2.312,2.313,2.302,2.302,2.302,0,0,2.2291,2.2342,2.2379,2.2472,2.2515,2.2577,2.2563,2.2629,2.2674,2.2686,2.2766,2.2799,2.2859,2.2944,2.2984,2.2973,2.3106,2.3071,2.3075,2.308,2.3126,2.3136,2.3146,2.3024,2.3023,2.3022,0,0,2.236,2.2406,2.2472,2.2516,2.2582,2.2613,2.2628,2.2696,2.2719,2.28,2.281,2.2864,2.2967,2.301,2.3045,2.313,2.3133,2.3148,2.3181,2.3227,2.3236,2.3243,2.3273,2.3283,2.3156,2.3156,2.3156,0,2.2377,2.2472,2.2505,2.2571,2.2611,2.2626,2.2692,2.2733,2.2814,2.284,2.2828,2.2958,2.3,2.3094,2.3115,2.3144,2.3161,2.314,2.3232,2.324,2.3248,2.3276,2.3287,2.3157,2.3157,2.3157,2.3157,0,2.2489,2.2554,2.26,2.268,2.2725,2.279,2.2831,2.2873,2.2887,2.2919,2.3001,2.3051,2.312,2.3144,2.3158,2.3241,2.3232,2.3226,2.3202,2.3259,2.3286,2.3297,2.3159,2.3158,2.3158,2.3158,0,0,2.2557,2.2656,2.2671,2.2708,2.2782,2.2833,2.2899,2.2968,2.3002,2.3058,2.3113,2.32,2.3195,2.3235,2.3254,2.3294,2.3358,2.3283,2.3285,2.3294,2.345,2.3453,2.3465,2.3361,2.3363,2.3365,2.3444,0,2.2634,2.2754,2.2785,2.2886,2.2946,2.2962,2.302,2.307,2.3102,2.3156,2.3189,2.3251,2.324,2.3264,2.3305,2.3341,2.3389,2.3336,2.341,2.3412,2.3393,2.348,2.3484,2.3556,2.3455,2.3457,2.3458,0,2.2739,2.2798,2.2906,2.2972,2.2999,2.305,2.3116,2.3168,2.3226,2.3245,2.329,2.3306,2.3373,2.3347,2.344,2.3403,2.3435,2.3458,2.3461,2.3468,2.3438,2.3487,2.358,2.359,2.3476,2.3474,2.3473,0,2.2776,2.2883,2.2961,2.2992,2.3072,2.3107,2.3142,2.3198,2.3238,2.3295,2.332,2.3384,2.3418,2.3466,2.3498,2.3476,2.3587,2.3564,2.3603,2.3603,2.3625,2.3622,2.3722,2.3648,2.3648,2.3648,2.3647,0,2.2857,2.2922,2.2979,2.3027,2.31,2.3135,2.3205,2.324,2.329,2.3343,2.3361,2.341,2.345,2.3504,2.3529,2.3601,2.3616,2.3632,2.3638,2.363,2.3628,2.365,2.3646,2.365,2.365,2.3649,2.3649,0,2.291,2.2952,2.3038,2.3108,2.3127,2.3177,2.3235,2.3281,2.3314,2.3381,2.3399,2.3449,2.3514,2.355,2.3631,2.3648,2.3728,2.3731,2.3709,2.3711,2.3747,2.3743,2.3864,2.3881,2.3797,2.3797,2.3798,0,2.2959,2.3009,2.3085,2.3123,2.3159,2.322,2.3261,2.3297,2.3339,2.3409,2.3446,2.3513,2.3567,2.367,2.3712,2.3774,2.3778,2.3816,2.3787,2.3778,2.3777,2.3773,2.3777,2.3821,2.3821,2.3822,2.3823,0,2.3039,2.3057,2.3117,2.3184,2.3233,2.3287,2.334,2.337,2.3415,2.3461,2.3529,2.3571,2.3655,2.372,2.3786,2.3819,2.3828,2.3832,2.3844,2.3835,2.382,2.3827,2.3721,2.3828,2.3828,2.3827,2.3827,2.3827,2.309,2.3136,2.3196,2.3262,2.3307,2.3356,2.3403,2.3442,2.35,2.3572,2.359,2.3661,2.3716,2.3806,2.3841,2.3896,2.3888,2.3906,2.391,2.3914,2.3914,2.3813,2.3908,2.3908,2.3907,2.3907,2.3907,0,2.317,2.3211,2.3271,2.3346,2.3397,2.3404,2.3464,2.3505,2.3568,2.3621,2.3675,2.3752,2.3816,2.3863,2.3928,2.3962,2.3967,2.3977,2.3974,2.3982,2.3918,2.39,2.3972,2.3972,2.3972,2.3972,2.3972,2.3972,2.3218,2.3295,2.3321,2.3419,2.3459,2.353,2.3563,2.3609,2.3651,2.3737,2.3791,2.3822,2.3872,2.3941,2.3998,2.4011,2.4032,2.4042,2.4054,2.3993,2.3986,2.3979,2.3963,2.4047,2.4047,2.4113,2.4114,2.4114]}]]